Flag Weather past 2 weeks in Rhodes, Rhodes, Greece

Now
55 °F

Passing clouds.


Feels Like: 52 °F
Forecast: 52 / 60 °F
Wind: 15 mph from Northwest

Location: Rhodes Airport

Current Time: Nov 27, 2014 at 2:34:13 AM

Latest Report: Nov 27, 2014 at 1:50 AM


Visibility: N/A

Pressure: 30.01 "Hg

Humidity: 63%

Dew point: 43 °F

Location of RhodesLocation

Historic Weather in Rhodes — Graph

°F

Rhodes temperature yesterday

Maximum temperature yesterday: 61 °F (at 3:50 PM)
Minimum temperature yesterday: 52 °F (at 5:50 AM)
Average temperature yesterday: 57 °F

Past Weeks' High & Low Weather Summary

 TemperatureHumidityPressure
High72 °F (Nov 12, 12:50 PM)100% (Nov 15, 2:50 AM)30.18 "Hg (Nov 15, 2:50 AM)
Low52 °F (Nov 26, 5:50 AM)21% (Nov 25, 3:50 AM)29.77 "Hg (Nov 14, 5:20 AM)
Average63 °F72%29.97 "Hg
* Reported Nov 12 1:20 AM — Nov 27 1:20 AM, Rhodes, Weather by CustomWeather, © 2014

Note: Actual official high and low records may vary slightly from our data, if they occured in-between our weather recording intervals... More about our weather records

Advertising

Rhodes weather history for previous 24 hours

 ConditionsComfort  
Time TempWeatherWind HumidityBarometerVisibility
1:20 AM
Nov 27
57 °FPassing clouds.14 mph48%29.98 "HgN/A
12:50 AM57 °FPassing clouds.14 mph48%29.98 "HgN/A
12:20 AM57 °FPassing clouds.14 mph48%30.01 "HgN/A
11:50 PM
Nov 26
57 °FPassing clouds.14 mph48%30.01 "HgN/A
11:20 PM57 °FPassing clouds.14 mph48%30.01 "HgN/A
10:50 PM57 °FPassing clouds.13 mph48%30.01 "HgN/A
10:20 PM59 °FPassing clouds.13 mph45%29.98 "HgN/A
9:50 PM59 °FPassing clouds.12 mph45%29.98 "HgN/A
9:20 PM59 °FPassing clouds.14 mph45%29.98 "HgN/A
8:50 PM59 °FPassing clouds.12 mph45%29.98 "HgN/A
8:20 PM59 °FPassing clouds.15 mph45%29.98 "HgN/A
7:50 PM59 °FPassing clouds.12 mph45%29.98 "HgN/A
7:20 PM59 °FPassing clouds.14 mph55%29.92 "HgN/A
6:50 PM59 °FPassing clouds.14 mph55%29.92 "HgN/A
6:20 PM59 °FPassing clouds.15 mph55%29.92 "HgN/A
5:50 PM59 °FPassing clouds.15 mph55%29.92 "HgN/A
5:20 PM59 °FPassing clouds.17 mph55%29.92 "HgN/A
4:50 PM59 °FPassing clouds.15 mph55%29.92 "HgN/A
4:20 PM61 °FPassing clouds.14 mph52%29.92 "HgN/A
3:50 PM61 °FPassing clouds.14 mph52%29.92 "HgN/A
3:20 PM59 °FPassing clouds.16 mph55%29.92 "HgN/A
2:50 PM59 °FPassing clouds.15 mph55%29.92 "HgN/A
2:20 PM59 °FPassing clouds.15 mph55%29.92 "HgN/A
1:50 PM59 °FPassing clouds.18 mph55%29.92 "HgN/A
1:20 PM59 °FPassing clouds.18 mph55%29.92 "HgN/A
12:50 PM59 °FPassing clouds.16 mph55%29.92 "HgN/A
12:20 PM59 °FPassing clouds.18 mph55%29.92 "HgN/A
11:50 AM59 °FPassing clouds.18 mph55%29.92 "HgN/A
11:20 AM57 °FPassing clouds.17 mph59%29.95 "HgN/A
10:50 AM57 °FPassing clouds.16 mph59%29.95 "HgN/A
10:20 AM57 °FPassing clouds.16 mph48%29.95 "HgN/A
9:50 AM57 °FPassing clouds.17 mph48%29.95 "HgN/A
9:20 AM55 °FPassing clouds.15 mph59%29.95 "HgN/A
8:50 AM55 °FPassing clouds.16 mph59%29.95 "HgN/A
8:20 AM54 °FPassing clouds.16 mph63%29.92 "HgN/A
7:50 AM54 °FPassing clouds.18 mph63%29.92 "HgN/A
7:20 AM52 °FPassing clouds.17 mph67%29.92 "HgN/A
6:50 AM52 °FPassing clouds.17 mph67%29.92 "HgN/A
6:20 AM52 °FPassing clouds.17 mph67%29.92 "HgN/A
5:50 AM52 °FPassing clouds.17 mph67%29.92 "HgN/A
5:20 AM54 °FPassing clouds.20 mph67%29.92 "HgN/A
4:50 AM54 °FPassing clouds.20 mph67%29.92 "HgN/A
4:20 AM54 °FPassing clouds.20 mph67%29.92 "HgN/A
3:50 AM54 °FPassing clouds.18 mph67%29.92 "HgN/A
3:20 AM54 °FPassing clouds.20 mph67%29.92 "HgN/A
2:50 AM54 °FPassing clouds.20 mph67%29.92 "HgN/A
2:20 AM54 °FPassing clouds.20 mph67%29.92 "HgN/A
Weather by CustomWeather, © 2014

See weather overviewHow to use our weather pages